Location: Kampernieuwstad
(52.5135°N, 5.8742°E)
Time: 07:18:25
(UTC+00:00)

Cosmos 2227 Rocket - Pass Details

Date: 15 May 2026
Orbit: 837 x 844 km, 71.0° (Epoch: 6 June)

Event Time Altitude Azimuth Distance (km) Brightness Sun altitude
Exits shadow 22:55:56 17° 122° (ESE) 2,018 3.8 -18.0°
Maximum altitude 22:57:37 19° 100° (E) 1,900 3.8 -18.0°
Drops below altitude 10° 23:01:29 10° 57° (ENE) 2,474 4.9 -18.1°
Sets 23:04:35 0° 40° (NE) 3,414 6.0 -18.2°
